Cahokia, IL

10:54 AM CDT on July 23, 2017 (GMT -0500)
Saint Louis Downtown

Weather History for KCPS - July, 2014

Change the Weather History Date:

Thursday, July 3, 2014

  Actual Average Record
Temperature  
Mean Temperature 70 °F -  
Max Temperature 81 °F 82 °F 100 °F (2012)
Min Temperature 60 °F 66 °F 55 °F (2010)
Cooling Degree Days 6    
Growing Degree Days 20 (Base 50)    
Moisture  
Dew Point 56 °F    
Average Humidity 66    
Maximum Humidity 90    
Minimum Humidity 42    
Precipitation  
Precipitation 0.00 in - - ()
Sea Level Pressure  
Sea Level Pressure 30.16 in    
Wind  
Wind Speed 8 mph (NNW)    
Max Wind Speed 13 mph    
Max Gust Speed -    
Visibility 10 miles    
Events      
Averages and records for this station are not official NWS values.
T = Trace of Precipitation, MM = Missing Value Source: NWS Daily Summary

Daily Weather History Graph

Daily Weather History Graph

Search for Another Location

Airport or City:

Trip Planner

Search our weather history database for the weather conditions in past years. The results will help you decide how hot, cold, wet, or windy it might be!

Date:

Astronomy

Jul. 03, 2014 Rise Set
Actual Time 5:41 AM CDT 8:28 PM CDT
Civil Twilight 5:09 AM CDT 9:00 PM CDT
Nautical Twilight 4:29 AM CDT 9:39 PM CDT
Astronomical Twilight 3:44 AM CDT 10:24 PM CDT
Moon 11:35 AM CDT (7/3) 11:55 PM CDT (7/3)
Length of Visible Light 15h 50m
Length of Day
14h 47m
Waxing Crescent, 33% of the Moon is Illuminated
Jul 3
Waxing Crescent
Jul 5
First Quarter
Jul 12
Full
Jul 18
Last Quarter
Jul 26
New

Hourly Weather History & Observations

Time (CDT) Temp. Heat Index Dew Point Humidity Pressure Visibility Wind Dir Wind Speed Gust Speed Precip Events Conditions
12:53 AM 64.0 °F - 55.0 °F 73% 30.10 in 10.0 mi NW 10.4 mph - N/A   Clear
1:53 AM 64.0 °F - 55.9 °F 75% 30.11 in 10.0 mi WNW 4.6 mph - N/A   Mostly Cloudy
2:53 AM 62.1 °F - 55.9 °F 80% 30.10 in 10.0 mi WNW 5.8 mph - N/A   Mostly Cloudy
3:53 AM 62.1 °F - 55.0 °F 78% 30.10 in 10.0 mi NW 5.8 mph - N/A   Clear
4:53 AM 62.1 °F - 55.9 °F 80% 30.11 in 10.0 mi WNW 5.8 mph - N/A   Partly Cloudy
5:53 AM 61.0 °F - 55.9 °F 83% 30.13 in 10.0 mi WNW 6.9 mph - N/A   Scattered Clouds
6:53 AM 62.1 °F - 55.9 °F 80% 30.15 in 10.0 mi NW 11.5 mph - N/A   Overcast
7:11 AM 63.0 °F - 55.9 °F 78% 30.16 in 10.0 mi WNW 10.4 mph - N/A   Overcast
7:53 AM 64.9 °F - 55.9 °F 73% 30.16 in 10.0 mi NW 9.2 mph - N/A   Mostly Cloudy
9:53 AM 68.0 °F - 55.9 °F 65% 30.18 in 10.0 mi NW 8.1 mph - N/A   Mostly Cloudy
10:31 AM 69.1 °F - 57.0 °F 65% 30.18 in 10.0 mi NNW 10.4 mph - N/A   Overcast
10:53 AM 70.0 °F - 57.0 °F 63% 30.18 in 10.0 mi NNW 9.2 mph - N/A   Mostly Cloudy
11:53 AM 73.9 °F - 57.0 °F 55% 30.18 in 10.0 mi NNW 11.5 mph - N/A   Mostly Cloudy
12:53 PM 75.9 °F - 57.0 °F 52% 30.18 in 10.0 mi North 12.7 mph - N/A   Mostly Cloudy
2:53 PM 75.9 °F - 55.9 °F 50% 30.18 in 10.0 mi North 9.2 mph - N/A   Mostly Cloudy
3:53 PM 80.1 °F 80.1 °F 55.0 °F 42% 30.17 in 10.0 mi NNE 6.9 mph - N/A   Mostly Cloudy
4:53 PM 80.1 °F 80.1 °F 55.0 °F 42% 30.17 in 10.0 mi NNE 9.2 mph - N/A   Partly Cloudy
5:53 PM 78.1 °F - 54.0 °F 43% 30.16 in 10.0 mi NNE 8.1 mph - N/A   Clear
6:53 PM 79.0 °F - 55.0 °F 44% 30.16 in 10.0 mi North 9.2 mph - N/A   Partly Cloudy
7:53 PM 75.0 °F - 55.0 °F 50% 30.16 in 10.0 mi North 5.8 mph - N/A   Clear
8:53 PM 68.0 °F - 55.9 °F 65% 30.16 in 10.0 mi North 3.5 mph - N/A   Clear
9:53 PM 64.0 °F - 57.0 °F 78% 30.18 in 10.0 mi Calm Calm - N/A   Clear
10:53 PM 63.0 °F - 59.0 °F 87% 30.19 in 10.0 mi Calm Calm - N/A   Mostly Cloudy
11:53 PM 60.1 °F - 57.0 °F 90% 30.22 in 10.0 mi Calm Calm - N/A   Clear